Wroclaw, Poland

01:04 CEST dnia 25-kwiecień-2017 (GMT +0200)
Wroclaw

Pogoda Historia dla 12424 - kwiecień, 2017

Change the Weather History Date:

Piątek, kwiecień 21, 2017

  Actual Average Record
Temperature  
Temperatura średnia 43 ° F -  
Temperatura maksymalna 55 ° F 63 ° F - ()
Temperatura minimalna 31 ° F 43 ° F - ()
Degree Days  
stopnio-dni grzewczych 22    
Moisture  
Punkt rosy 31 ° F    
Average Humidity 56    
Maximum Humidity 81    
Minimum Humidity 31    
Opady  
Opady 0.00 cali 0.07 cali - ()
Ciśnienie na poziomie morza  
Ciśnienie na poziomie morza 30.27 cali    
Wiatr  
Prędkość wiatru 9 mph ()    
Maksymalna prędkość wiatru 21 mph    
Max Gust Speed 30 mph    
Widzialność 13.9 mil    
Wydarzenia      
T = Trace of Precipitation, MM = Missing Value Source: Averaged Metar Reports

Daily Weather History Graph

Daily Weather History Graph

Search for Another Location

Airport or City:

Trip Planner

Search our weather history database for the weather conditions in past years. The results will help you decide how hot, cold, wet, or windy it might be!

Date:

Astronomia

Apr. 21, 2017 Wschód Zachów
Aktualny czas 05:44 CEST 19:58 CEST
Zmierzch cywilny 05:09 CEST 20:34 CEST
Zmierzch żeglarski 04:23 CEST 21:19 CEST
świt/zmierzch astronomiczny 03:32 CEST 22:12 CEST
Księżyc 03:36 CEST (4/21) 13:40 CEST (4/21)
całkowite oświetlenie 15h 25m
Długość dnia
14h 13m
Zmniejszający się sierp Księżyca, 30% of the Moon is Illuminated
Kwiecień 21
Zmniejszający się sierp Księżyca
Kwiecień 26
Nowy
Maj 3
Pierwsza kwadra
Maj 10
Pełnia Księżyca
Maj 19
Ostatnia kwadra

Hourly Weather History & Observations

czas (CEST) Temp. czynnik chłodzący wiatru Punkt rosy Wilgotność Ciśnienie Widzialność Wind Dir Prędkość wiatru prędkość w porywie Precip Wydarzenia Warunki pogodowe
12:00 AM 39 ° F - 27 ° F 51% 30.47 cali 19 mi ZdPnZd 4.5 mph - -   przewaga chmur
12:00 AM 35.6 ° F 30.7 ° F 26.6 ° F 70% 30.45 cali - ZdPnZd 5.8 mph - N/A   pogodnie
12:30 AM 35.6 ° F 30.7 ° F 26.6 ° F 70% 30.45 cali - ZdPnZd 5.8 mph - N/A   pogodnie
1:00 AM 35.6 ° F 29.9 ° F 28.4 ° F 75% 30.45 cali - ZdPnZd 6.9 mph - N/A   pogodnie
1:30 AM 35.6 ° F 29.9 ° F 28.4 ° F 75% 30.42 cali - ZdPnZd 6.9 mph - N/A   pogodnie
2:00 AM 39 ° F - 28 ° F 53% 30.45 cali 19 mi PnZd 2.2 mph - -   przewaga chmur
2:00 AM 35.6 ° F 28.6 ° F 28.4 ° F 75% 30.42 cali - ZdPnZd 9.2 mph - N/A   pogodnie
2:30 AM 35.6 ° F 29.9 ° F 28.4 ° F 75% 30.42 cali - zachodni 6.9 mph - N/A   pogodnie
3:00 AM 39 ° F - 28 ° F 52% 30.43 cali 19 mi ZdPnZd 4.5 mph - -   przewaga chmur
3:00 AM 33.8 ° F 27.0 ° F 28.4 ° F 81% 30.39 cali - ZdPnZd 8.1 mph - N/A   pogodnie
3:30 AM 33.8 ° F 29.6 ° F 28.4 ° F 81% 30.39 cali - ZdPnZd 4.6 mph - N/A   pogodnie
4:00 AM 34 ° F - 27 ° F 65% 30.42 cali 25 mi zachodni 4.5 mph - -   obłoki zanikające
4:00 AM 33.8 ° F 28.6 ° F 26.6 ° F 75% 30.39 cali - zachodni 5.8 mph - N/A   pogodnie
4:30 AM 32.0 ° F 26.4 ° F 24.8 ° F 75% 30.39 cali - zachodni 5.8 mph - N/A   pogodnie
5:00 AM 32 ° F - 25 ° F 67% 30.41 cali 25 mi zachodni 6.7 mph - -   obłoki zanikające
5:00 AM 32.0 ° F 24.8 ° F 26.6 ° F 80% 30.39 cali - zachodni 8.1 mph - N/A   pogodnie
5:30 AM 32.0 ° F 24.8 ° F 24.8 ° F 75% 30.36 cali - zachodni 8.1 mph - N/A   pogodnie
6:00 AM 32 ° F - 25 ° F 67% 30.41 cali 25 mi zachodni 6.7 mph - -   obłoki zanikające
6:00 AM 32.0 ° F 25.6 ° F 24.8 ° F 75% 30.36 cali - zachodni 6.9 mph - N/A   pogodnie
7:00 AM 34 ° F - 27 ° F 66% 30.39 cali 25 mi zachodni 4.5 mph - -   obłoki zanikające
7:00 AM 33.8 ° F 27.0 ° F 26.6 ° F 75% 30.36 cali - zachodni 8.1 mph - N/A   pogodnie
7:30 AM 37.4 ° F 30.8 ° F 26.6 ° F 65% 30.36 cali - zachodni 9.2 mph - N/A   pogodnie
8:00 AM 40 ° F - 27 ° F 48% 30.38 cali 25 mi zachodni 11.2 mph - -   przewaga chmur
8:00 AM 39.2 ° F 32.5 ° F 26.6 ° F 61% 30.36 cali - zachodni 10.4 mph - N/A   pogodnie
8:30 AM 41.0 ° F 34.7 ° F 28.4 ° F 61% 30.33 cali - zachodni 10.4 mph - N/A   pogodnie
9:00 AM 42 ° F - 27 ° F 43% 30.36 cali 31 mi zachodni 11.2 mph - -   przewaga chmur
9:00 AM 41.0 ° F 33.5 ° F 26.6 ° F 57% 30.33 cali - zachodni 13.8 mph - N/A   pogodnie
9:30 AM 42.8 ° F 36.6 ° F 26.6 ° F 53% 30.33 cali - zachodni 11.5 mph - N/A   pogodnie
10:00 AM 44 ° F - 27 ° F 39% 30.35 cali 31 mi zachodni 13.4 mph - -   przewaga chmur
10:00 AM 42.8 ° F 35.4 ° F 26.6 ° F 53% 30.33 cali - zachodni 15.0 mph - N/A   pogodnie
10:30 AM 44.6 ° F 38.1 ° F 28.4 ° F 53% 30.33 cali - zachodni 13.8 mph - N/A   pogodnie
11:00 AM 47 ° F - 29 ° F 37% 30.33 cali 31 mi zachodni 13.4 mph - -   przewaga chmur
11:00 AM 46.4 ° F 40.7 ° F 26.6 ° F 46% 30.30 cali - zachodni 12.7 mph - N/A   pogodnie
11:30 AM 46.4 ° F 39.8 ° F 26.6 ° F 46% 30.30 cali - zachodni 16.1 mph - N/A   pogodnie
12:00 PM 50 ° F - 29 ° F 32% 30.30 cali 25 mi zachodni 15.7 mph - -   niewielkie zachmurzenie
12:00 PM 48.2 ° F - 28.4 ° F 46% 30.30 cali 6.2 mi zachodni 15.0 mph - N/A   obłoki zanikające
12:30 PM 50.0 ° F - 28.4 ° F 43% 30.27 cali 6.2 mi zachodni 17.3 mph - N/A   niewielkie zachmurzenie
1:00 PM 53 ° F - 31 ° F 31% 30.27 cali 25 mi zachodni 17.9 mph - -   przewaga chmur
1:00 PM 51.8 ° F - 30.2 ° F 44% 30.24 cali - zachodni 19.6 mph - N/A   pogodnie
1:30 PM 51.8 ° F - 33.8 ° F 50% 30.24 cali - zachodni 17.3 mph - N/A   pogodnie
2:00 PM 54 ° F - 36 ° F 38% 30.25 cali 25 mi zachodni 17.9 mph - -   obłoki zanikające
2:00 PM 51.8 ° F - 33.8 ° F 50% 30.24 cali 6.2 mi zachodni 18.4 mph - N/A   niewielkie zachmurzenie
2:30 PM 53.6 ° F - 35.6 ° F 51% 30.21 cali - zachodni 19.6 mph - N/A   pogodnie
3:00 PM 54 ° F - 35 ° F 36% 30.22 cali 19 mi zachodni 15.7 mph - -   przewaga chmur
3:00 PM 53.6 ° F - 33.8 ° F 47% 30.21 cali 6.2 mi zachodni 19.6 mph - N/A   przewaga chmur
3:30 PM 53.6 ° F - 33.8 ° F 47% 30.18 cali 6.2 mi zachodni 19.6 mph - N/A   przewaga chmur
4:00 PM 53.6 ° F - 33.8 ° F 47% 30.18 cali 6.2 mi zachodni 20.7 mph - N/A   niewielkie zachmurzenie
4:30 PM 53.6 ° F - 35.6 ° F 51% 30.18 cali - zachodni 19.6 mph - N/A   pogodnie
5:00 PM 54 ° F - 37 ° F 41% 30.17 cali 19 mi ZdPnZd 15.7 mph - -   przewaga chmur
5:00 PM 53.6 ° F - 35.6 ° F 51% 30.15 cali - ZdPnZd 18.4 mph - N/A   pogodnie
5:30 PM 53.6 ° F - 35.6 ° F 51% 30.15 cali - zachodni 18.4 mph 29.9 mph N/A   pogodnie
6:00 PM 55 ° F - 37 ° F 39% 30.16 cali 19 mi ZdPnZd 13.4 mph - -   przewaga chmur
6:00 PM 53.6 ° F - 37.4 ° F 54% 30.15 cali - zachodni 17.3 mph - N/A   pogodnie
6:30 PM 53.6 ° F - 37.4 ° F 54% 30.15 cali - zachodni 16.1 mph - N/A   pogodnie
7:00 PM 54 ° F - 37 ° F 41% 30.14 cali 19 mi zachodni 13.4 mph - -   przewaga chmur
7:00 PM 53.6 ° F - 35.6 ° F 51% 30.12 cali - zachodni 13.8 mph - N/A   pogodnie
7:30 PM 53.6 ° F - 35.6 ° F 51% 30.12 cali - zachodni 13.8 mph - N/A   pogodnie
8:00 PM 53 ° F - 37 ° F 42% 30.13 cali 19 mi zachodni 13.4 mph - -   przewaga chmur
8:00 PM 51.8 ° F - 35.6 ° F 54% 30.12 cali - zachodni 13.8 mph - N/A   pogodnie
8:30 PM 51.8 ° F - 37.4 ° F 58% 30.12 cali - zachodni 10.4 mph - N/A   pogodnie
9:00 PM 52 ° F - 37 ° F 45% 30.12 cali 25 mi zachodni 13.4 mph - -   przewaga chmur
9:00 PM 51.8 ° F - 37.4 ° F 58% 30.09 cali - zachodni 11.5 mph - N/A   pogodnie
9:30 PM 51.8 ° F - 35.6 ° F 54% 30.09 cali - zachodni 10.4 mph - N/A   pogodnie
10:00 PM 51.8 ° F - 35.6 ° F 54% 30.09 cali - zachodni 11.5 mph - N/A   pogodnie
10:30 PM 51.8 ° F - 35.6 ° F 54% 30.06 cali - ZdPdZd 10.4 mph - N/A   pogodnie
11:00 PM 49 ° F - 37 ° F 53% 30.08 cali 19 mi zachodni 8.9 mph - -   przewaga chmur
11:00 PM 50.0 ° F - 35.6 ° F 58% 30.06 cali - ZdPdZd 9.2 mph - N/A   pogodnie
11:30 PM 50.0 ° F - 37.4 ° F 62% 30.04 cali - zachodni 11.5 mph - N/A   pogodnie